Location: Bastelaar
(51.0950°N, 3.8602°E)
Time: 08:34:55
(UTC+00:00)

BlueWalker 3 - Pass Details

Date: 24 January 2026
Orbit: 450 x 461 km, 53.2° (Epoch: 11 February)

Event Time Altitude Azimuth Distance (km) Brightness Sun altitude
Rises 17:10:48 0° 208° (SSW) 2,447 6.3 -7.8°
Reaches altitude 10° 17:13:13 10° 193° (SSW) 1,578 4.9 -8.2°
Maximum altitude 17:16:02 22° 140° (SE) 1,024 3.3 -8.6°
Enters shadow 17:18:39 11° 90° (E) 1,514 3.8 -9.0°
